RYR39BP EBCI-LERS

Flight info

Callsign RYR39BP
Flight time N/A
Altitude 31000
Route CIV N872 LESDO DCT KOVIN DCT DUCRA UM728 RESMI UN857 DISAK/N0424F330 DCT DIRMO DCT VALKU DCT ATSUP DCT MINSO DCT DEGOL DCT PPG DCT ALBER P84 GIR
Aircraft B738/M-SDE2E3FGHIRWXY/LB1

Departure

Time 2026-05-07 10:03
Airport Brussels South Charleroi Airport (EBCI)

Arrival

Time N/A
Airport Reus Airport (LERS)
Time Latitude Longitude Altitude Speed Heading
2026-05-07 08:50 50.46871 4.47098 584 ft 0 kts 335°
2026-05-07 09:56 50.46856 4.47108 584 ft 4 kts 335°
2026-05-07 09:56 50.46836 4.47123 584 ft 4 kts 349°
2026-05-07 09:57 50.46815 4.47117 585 ft 5 kts 56°
2026-05-07 09:57 50.46804 4.47082 585 ft 4 kts 66°
2026-05-07 09:57 50.46804 4.47080 585 ft 3 kts 65°
2026-05-07 09:59 50.46804 4.47081 585 ft 1 kts 65°
2026-05-07 10:00 50.46812 4.47108 585 ft 5 kts 65°
2026-05-07 10:00 50.46834 4.47181 585 ft 10 kts 65°
2026-05-07 10:00 50.46853 4.47295 585 ft 11 kts 108°
2026-05-07 10:00 50.46793 4.47365 588 ft 11 kts 134°
2026-05-07 10:01 50.46802 4.47476 589 ft 11 kts 63°
2026-05-07 10:01 50.46838 4.47597 590 ft 13 kts 68°
2026-05-07 10:01 50.46808 4.47683 593 ft 0 kts 158°
2026-05-07 10:02 50.46805 4.47685 593 ft 4 kts 158°
2026-05-07 10:02 50.46772 4.47705 594 ft 6 kts 158°
2026-05-07 10:02 50.46731 4.47732 594 ft 9 kts 158°
2026-05-07 10:02 50.46679 4.47689 592 ft 8 kts 244°
2026-05-07 10:03 50.46641 4.47553 594 ft 33 kts 246°
2026-05-07 10:03 50.46436 4.46840 593 ft 109 kts 245°
2026-05-07 10:03 50.46031 4.45438 647 ft 167 kts 247°
2026-05-07 10:03 50.45529 4.43682 1265 ft 186 kts 246°
2026-05-07 10:04 50.44984 4.41765 2025 ft 199 kts 245°
2026-05-07 10:04 50.44386 4.39723 2643 ft 211 kts 245°
2026-05-07 10:04 50.43748 4.37560 3075 ft 230 kts 245°
2026-05-07 10:04 50.43046 4.35134 3387 ft 257 kts 245°
2026-05-07 10:05 50.42294 4.32518 4115 ft 266 kts 245°
2026-05-07 10:05 50.41531 4.29873 5099 ft 268 kts 245°
2026-05-07 10:05 50.40813 4.27177 6096 ft 268 kts 253°
2026-05-07 10:05 50.40425 4.24324 7034 ft 269 kts 260°
2026-05-07 10:06 50.40146 4.21397 7855 ft 274 kts 261°
2026-05-07 10:06 50.39744 4.18465 8658 ft 279 kts 244°
2026-05-07 10:06 50.38513 4.16150 9548 ft 279 kts 218°
2026-05-07 10:06 50.36934 4.14332 10341 ft 284 kts 216°
2026-05-07 10:07 50.35271 4.12464 10622 ft 307 kts 216°
2026-05-07 10:07 50.33476 4.10417 10857 ft 329 kts 217°
2026-05-07 10:07 50.31604 4.08244 11437 ft 339 kts 217°
2026-05-07 10:07 50.29709 4.06014 12219 ft 342 kts 218°
2026-05-07 10:08 50.27808 4.03757 13037 ft 345 kts 218°
2026-05-07 10:08 50.25890 4.01470 13826 ft 348 kts 218°
2026-05-07 10:08 50.23957 3.99162 14531 ft 352 kts 218°
2026-05-07 10:08 50.22000 3.96829 15211 ft 355 kts 218°
2026-05-07 10:09 50.20028 3.94479 15904 ft 359 kts 218°
2026-05-07 10:09 50.18036 3.92099 16591 ft 363 kts 218°
2026-05-07 10:09 50.16024 3.89694 17268 ft 366 kts 218°
2026-05-07 10:09 50.13990 3.87264 17947 ft 370 kts 218°
2026-05-07 10:10 50.11937 3.84813 18572 ft 374 kts 218°
2026-05-07 10:10 50.09863 3.82343 19155 ft 377 kts 218°
2026-05-07 10:10 50.07770 3.79854 19738 ft 380 kts 218°
2026-05-07 10:10 50.05689 3.77381 20311 ft 383 kts 218°
2026-05-07 10:11 50.03561 3.74858 20873 ft 386 kts 218°
2026-05-07 10:11 50.01385 3.72280 21449 ft 390 kts 218°
2026-05-07 10:11 49.99220 3.69717 22005 ft 393 kts 218°
2026-05-07 10:11 49.97034 3.67132 22546 ft 396 kts 218°
2026-05-07 10:12 49.94832 3.64530 23081 ft 400 kts 218°
2026-05-07 10:12 49.92637 3.61940 23575 ft 404 kts 218°
2026-05-07 10:12 49.90388 3.59289 23985 ft 407 kts 218°
2026-05-07 10:12 49.88124 3.56623 24458 ft 409 kts 218°
2026-05-07 10:13 49.85823 3.53918 24932 ft 411 kts 218°
2026-05-07 10:13 49.83570 3.51270 25368 ft 413 kts 218°
2026-05-07 10:13 49.81270 3.48571 25787 ft 416 kts 218°
2026-05-07 10:13 49.78956 3.45859 26195 ft 418 kts 218°
2026-05-07 10:14 49.76632 3.43139 26608 ft 421 kts 218°
2026-05-07 10:14 49.74288 3.40401 26999 ft 423 kts 218°
2026-05-07 10:14 49.71932 3.37652 27408 ft 425 kts 218°
2026-05-07 10:14 49.69565 3.34895 27786 ft 428 kts 218°
2026-05-07 10:15 49.67180 3.32120 28147 ft 430 kts 218°
2026-05-07 10:15 49.64780 3.29329 28505 ft 433 kts 218°
2026-05-07 10:15 49.62371 3.26532 28853 ft 435 kts 218°
2026-05-07 10:15 49.59944 3.23717 29217 ft 437 kts 218°
2026-05-07 10:16 49.57506 3.20892 29563 ft 440 kts 218°
2026-05-07 10:16 49.55053 3.18052 29896 ft 442 kts 218°
2026-05-07 10:16 49.52591 3.15206 30205 ft 444 kts 218°
2026-05-07 10:16 49.50115 3.12349 30551 ft 444 kts 218°
2026-05-07 10:17 49.47644 3.09549 31062 ft 439 kts 216°
2026-05-07 10:17 49.45125 3.06902 31484 ft 438 kts 215°
2026-05-07 10:17 49.42583 3.04338 31832 ft 438 kts 214°
2026-05-07 10:17 49.40025 3.01793 32156 ft 438 kts 214°
2026-05-07 10:18 49.37469 2.99248 32542 ft 437 kts 214°
2026-05-07 10:18 49.34928 2.96707 32955 ft 435 kts 214°
2026-05-07 10:18 49.32403 2.94172 33330 ft 434 kts 214°
2026-05-07 10:18 49.29886 2.91637 33670 ft 433 kts 214°
2026-05-07 10:19 49.27368 2.89098 34013 ft 432 kts 214°
2026-05-07 10:19 49.24859 2.86569 34308 ft 432 kts 214°
2026-05-07 10:19 49.22349 2.84042 34533 ft 433 kts 214°
2026-05-07 10:19 49.19832 2.81510 34760 ft 433 kts 214°
2026-05-07 10:20 49.17314 2.78982 35018 ft 433 kts 214°
2026-05-07 10:20 49.14793 2.76454 35275 ft 433 kts 214°
2026-05-07 10:20 49.12279 2.73936 35501 ft 433 kts 214°
2026-05-07 10:20 49.09752 2.71409 35731 ft 434 kts 214°
2026-05-07 10:21 49.07229 2.68889 35970 ft 433 kts 214°
2026-05-07 10:21 49.04712 2.66377 36195 ft 434 kts 214°
2026-05-07 10:21 49.02185 2.63857 36425 ft 434 kts 214°
2026-05-07 10:21 48.99662 2.61345 36714 ft 432 kts 214°
2026-05-07 10:22 48.97150 2.58848 36974 ft 432 kts 214°
2026-05-07 10:22 48.92087 2.53823 37073 ft 436 kts 214°
2026-05-07 10:23 48.87020 2.48804 37069 ft 433 kts 214°
2026-05-07 10:23 48.81992 2.43835 37070 ft 430 kts 214°
2026-05-07 10:24 48.77000 2.38911 37073 ft 427 kts 214°
2026-05-07 10:24 48.72024 2.34014 37081 ft 426 kts 214°
2026-05-07 10:25 48.67081 2.29162 37066 ft 426 kts 214°
2026-05-07 10:25 48.62104 2.24285 37058 ft 427 kts 214°
2026-05-07 10:26 48.56987 2.19694 37055 ft 430 kts 205°
2026-05-07 10:26 48.51220 2.17205 37059 ft 434 kts 193°
2026-05-07 10:27 48.46241 2.15702 37045 ft 436 kts 193°
2026-05-07 10:27 48.40286 2.13848 37043 ft 437 kts 194°
2026-05-07 10:28 48.34327 2.11934 37052 ft 438 kts 194°
2026-05-07 10:28 48.28312 2.10373 37039 ft 441 kts 184°
2026-05-07 10:29 48.22183 2.11175 37065 ft 444 kts 173°
2026-05-07 10:29 48.16124 2.12605 37058 ft 443 kts 174°
2026-05-07 10:30 48.06946 2.13773 37069 ft 440 kts 180°
2026-05-07 10:30 48.00828 2.14017 37073 ft 439 kts 180°
2026-05-07 10:31 47.94723 2.14300 37074 ft 439 kts 180°
2026-05-07 10:31 47.88618 2.14635 37076 ft 438 kts 180°
2026-05-07 10:32 47.82525 2.14989 37076 ft 438 kts 180°
2026-05-07 10:32 47.76438 2.15344 37033 ft 438 kts 180°
2026-05-07 10:33 47.70351 2.15697 37041 ft 437 kts 180°
2026-05-07 10:33 47.64268 2.16047 37040 ft 437 kts 180°
2026-05-07 10:34 47.58228 2.16394 37041 ft 438 kts 180°
2026-05-07 10:34 47.52144 2.16743 37040 ft 437 kts 180°
2026-05-07 10:35 47.46020 2.17093 37037 ft 438 kts 180°
2026-05-07 10:35 47.39973 2.17438 37042 ft 438 kts 180°
2026-05-07 10:36 47.33886 2.17785 37036 ft 438 kts 180°
2026-05-07 10:36 47.27803 2.18131 37040 ft 438 kts 180°
2026-05-07 10:37 47.21714 2.18476 37046 ft 438 kts 180°
2026-05-07 10:37 47.15626 2.18820 37029 ft 438 kts 180°
2026-05-07 10:38 47.09545 2.19368 37031 ft 440 kts 173°
2026-05-07 10:38 47.03683 2.22054 37051 ft 444 kts 160°
2026-05-07 10:39 46.97968 2.25488 37042 ft 444 kts 160°
2026-05-07 10:39 46.92249 2.28902 37034 ft 444 kts 161°
2026-05-07 10:40 46.86522 2.32259 37040 ft 443 kts 161°
2026-05-07 10:40 46.80792 2.35586 37038 ft 443 kts 161°
2026-05-07 10:41 46.75055 2.38906 37032 ft 443 kts 161°
2026-05-07 10:41 46.69326 2.42215 37044 ft 443 kts 161°
2026-05-07 10:42 46.63593 2.45520 37025 ft 443 kts 161°
2026-05-07 10:42 46.57862 2.48816 37043 ft 443 kts 161°
2026-05-07 10:43 46.52124 2.52109 37030 ft 443 kts 162°
2026-05-07 10:43 46.46389 2.55393 37035 ft 443 kts 162°
2026-05-07 10:44 46.40683 2.58652 37039 ft 444 kts 162°
2026-05-07 10:44 46.34933 2.61929 37038 ft 444 kts 162°
2026-05-07 10:45 46.29134 2.65228 37033 ft 445 kts 162°
2026-05-07 10:45 46.23368 2.68499 37032 ft 445 kts 162°
2026-05-07 10:46 46.17635 2.71745 37034 ft 446 kts 162°
2026-05-07 10:46 46.11855 2.75011 37015 ft 446 kts 162°
2026-05-07 10:47 46.06082 2.78266 37023 ft 445 kts 162°
2026-05-07 10:47 46.00314 2.81510 37036 ft 445 kts 162°
2026-05-07 10:48 45.94529 2.84640 37035 ft 444 kts 163°
2026-05-07 10:48 45.88739 2.87679 37041 ft 443 kts 164°
2026-05-07 10:49 45.82950 2.90732 37042 ft 443 kts 163°
2026-05-07 10:49 45.77158 2.93787 37044 ft 443 kts 165°
2026-05-07 10:50 45.71197 2.95359 37027 ft 432 kts 184°
2026-05-07 10:50 45.65204 2.95160 37018 ft 430 kts 186°
2026-05-07 10:51 45.59217 2.94921 37011 ft 430 kts 185°
2026-05-07 10:51 45.53232 2.94729 36999 ft 430 kts 185°
2026-05-07 10:52 45.47246 2.94563 37017 ft 430 kts 185°
2026-05-07 10:52 45.41259 2.94403 37006 ft 431 kts 185°
2026-05-07 10:53 45.35262 2.94243 37021 ft 431 kts 185°
2026-05-07 10:53 45.29311 2.94084 37017 ft 431 kts 185°
2026-05-07 10:54 45.23313 2.93923 37015 ft 431 kts 185°
2026-05-07 10:54 45.17313 2.93763 37008 ft 432 kts 185°
2026-05-07 10:55 45.11312 2.93603 37010 ft 431 kts 185°
2026-05-07 10:55 45.05318 2.93444 37013 ft 430 kts 185°
2026-05-07 10:56 44.99330 2.93285 37011 ft 430 kts 185°
2026-05-07 10:56 44.93353 2.93126 37014 ft 429 kts 185°
2026-05-07 10:57 44.87386 2.92968 37011 ft 429 kts 185°
2026-05-07 10:57 44.81431 2.92740 37011 ft 427 kts 187°
2026-05-07 10:58 44.75505 2.92284 37015 ft 426 kts 187°
2026-05-07 10:58 44.69590 2.91808 37010 ft 426 kts 187°
2026-05-07 10:59 44.63677 2.91356 37014 ft 425 kts 187°
2026-05-07 10:59 44.57764 2.90922 36991 ft 425 kts 187°
2026-05-07 11:00 44.51862 2.90493 36999 ft 425 kts 187°
2026-05-07 11:00 44.45970 2.90067 37008 ft 423 kts 187°
2026-05-07 11:01 44.40091 2.89641 37012 ft 423 kts 187°
2026-05-07 11:01 44.34226 2.89217 37003 ft 422 kts 187°
2026-05-07 11:02 44.28367 2.88794 37011 ft 421 kts 187°
2026-05-07 11:02 44.22524 2.88374 37016 ft 421 kts 187°
2026-05-07 11:03 44.16682 2.87953 36999 ft 420 kts 187°
2026-05-07 11:03 44.10848 2.87535 36999 ft 420 kts 187°
2026-05-07 11:04 44.05019 2.87127 37011 ft 419 kts 187°
2026-05-07 11:04 43.99229 2.86709 36993 ft 419 kts 187°
2026-05-07 11:05 43.93400 2.86288 36993 ft 419 kts 187°
2026-05-07 11:05 43.87529 2.85869 36994 ft 420 kts 187°
2026-05-07 11:06 43.81732 2.85458 36999 ft 420 kts 187°
2026-05-07 11:06 43.75892 2.85140 36986 ft 421 kts 184°
2026-05-07 11:07 43.70030 2.85221 36996 ft 421 kts 183°
2026-05-07 11:07 43.64168 2.85370 37003 ft 421 kts 183°
2026-05-07 11:08 43.58308 2.85487 36984 ft 421 kts 183°
2026-05-07 11:08 43.52451 2.85580 36997 ft 420 kts 183°
2026-05-07 11:09 43.46605 2.85665 37002 ft 420 kts 183°
2026-05-07 11:09 43.40765 2.85750 37001 ft 420 kts 183°
2026-05-07 11:10 43.34929 2.85835 36993 ft 419 kts 184°
2026-05-07 11:10 43.29104 2.85920 36990 ft 418 kts 184°
2026-05-07 11:11 43.23286 2.86004 36992 ft 418 kts 184°
2026-05-07 11:11 43.17478 2.86089 36984 ft 417 kts 184°
2026-05-07 11:12 43.11682 2.86173 36990 ft 416 kts 184°
2026-05-07 11:12 43.05891 2.86256 36999 ft 416 kts 184°
2026-05-07 11:13 43.00105 2.86339 36998 ft 416 kts 184°
2026-05-07 11:13 42.94322 2.86423 36995 ft 415 kts 184°
2026-05-07 11:14 42.88591 2.86505 36808 ft 414 kts 184°
2026-05-07 11:14 42.85732 2.86548 36535 ft 408 kts 184°
2026-05-07 11:14 42.82909 2.86589 36279 ft 403 kts 184°
2026-05-07 11:15 42.80127 2.86630 36018 ft 397 kts 184°
2026-05-07 11:15 42.77377 2.86627 35761 ft 392 kts 189°
2026-05-07 11:15 42.74764 2.85874 35489 ft 380 kts 205°
2026-05-07 11:15 42.72420 2.84314 35265 ft 373 kts 214°
2026-05-07 11:16 42.70990 2.82959 35091 ft 369 kts 221°
2026-05-07 11:16 42.69052 2.80688 34847 ft 367 kts 222°
2026-05-07 11:16 42.67128 2.78412 34601 ft 366 kts 222°
2026-05-07 11:16 42.65208 2.76144 34349 ft 365 kts 222°
2026-05-07 11:17 42.63293 2.73890 34124 ft 364 kts 222°
2026-05-07 11:17 42.61406 2.71677 33877 ft 363 kts 222°
2026-05-07 11:17 42.59495 2.69443 33600 ft 362 kts 221°
2026-05-07 11:17 42.57563 2.67191 33311 ft 361 kts 221°
2026-05-07 11:18 42.55656 2.64972 33059 ft 360 kts 221°
2026-05-07 11:18 42.53755 2.62763 32795 ft 360 kts 221°
2026-05-07 11:18 42.51882 2.60589 32517 ft 359 kts 221°
2026-05-07 11:18 42.49984 2.58389 32254 ft 358 kts 221°
2026-05-07 11:19 42.48094 2.56200 32005 ft 358 kts 221°
2026-05-07 11:19 42.46203 2.54012 31740 ft 356 kts 221°
2026-05-07 11:19 42.44323 2.51836 31496 ft 356 kts 221°
2026-05-07 11:19 42.42443 2.49665 31239 ft 355 kts 221°
2026-05-07 11:20 42.40565 2.47498 30991 ft 354 kts 221°
2026-05-07 11:20 42.38696 2.45341 30734 ft 352 kts 221°
2026-05-07 11:20 42.36836 2.43199 30477 ft 350 kts 221°
2026-05-07 11:20 42.34989 2.41072 30234 ft 349 kts 221°
2026-05-07 11:21 42.33141 2.38959 29972 ft 347 kts 221°
2026-05-07 11:21 42.31306 2.36858 29688 ft 345 kts 221°
2026-05-07 11:21 42.29478 2.34762 29396 ft 344 kts 221°
2026-05-07 11:21 42.27663 2.32679 29105 ft 342 kts 221°
2026-05-07 11:22 42.25855 2.30605 28844 ft 341 kts 221°
2026-05-07 11:22 42.24052 2.28537 28592 ft 339 kts 220°
2026-05-07 11:22 42.22254 2.26478 28303 ft 339 kts 220°
2026-05-07 11:22 42.20461 2.24426 28034 ft 338 kts 220°
2026-05-07 11:23 42.18672 2.22379 27765 ft 337 kts 220°
2026-05-07 11:23 42.16885 2.20337 27505 ft 336 kts 220°
2026-05-07 11:23 42.15103 2.18302 27235 ft 336 kts 220°
2026-05-07 11:23 42.13324 2.16271 26978 ft 335 kts 220°
2026-05-07 11:24 42.11545 2.14243 26724 ft 334 kts 220°
2026-05-07 11:24 42.09775 2.12221 26462 ft 334 kts 221°
2026-05-07 11:24 42.08006 2.10196 26211 ft 333 kts 220°
2026-05-07 11:24 42.06241 2.08182 25967 ft 333 kts 220°
2026-05-07 11:25 42.04474 2.06171 25718 ft 332 kts 220°
2026-05-07 11:25 42.02711 2.04168 25472 ft 332 kts 220°
2026-05-07 11:25 42.00948 2.02167 25232 ft 331 kts 220°
2026-05-07 11:25 41.99190 2.00174 24993 ft 330 kts 220°
2026-05-07 11:26 41.97434 1.98185 24752 ft 330 kts 220°
2026-05-07 11:26 41.95683 1.96202 24509 ft 328 kts 220°
2026-05-07 11:26 41.93939 1.94229 24273 ft 327 kts 220°
2026-05-07 11:26 41.92203 1.92266 24041 ft 326 kts 220°
2026-05-07 11:27 41.90471 1.90309 23809 ft 325 kts 220°
2026-05-07 11:27 41.88744 1.88359 23567 ft 324 kts 220°
2026-05-07 11:27 41.87021 1.86415 23311 ft 323 kts 220°
2026-05-07 11:27 41.85303 1.84478 23038 ft 322 kts 220°
2026-05-07 11:28 41.83591 1.82549 22769 ft 321 kts 220°
2026-05-07 11:28 41.81880 1.80623 22504 ft 321 kts 220°
2026-05-07 11:28 41.80170 1.78700 22235 ft 320 kts 220°
2026-05-07 11:28 41.78486 1.76806 21991 ft 321 kts 220°
2026-05-07 11:29 41.76776 1.74885 21708 ft 321 kts 220°
2026-05-07 11:29 41.75069 1.72969 21447 ft 319 kts 220°
2026-05-07 11:29 41.73371 1.71063 21188 ft 318 kts 220°
2026-05-07 11:29 41.71678 1.69166 20924 ft 317 kts 220°
2026-05-07 11:30 41.69992 1.67277 20665 ft 315 kts 220°
2026-05-07 11:30 41.68327 1.65413 20417 ft 311 kts 220°
2026-05-07 11:30 41.66672 1.63562 20099 ft 309 kts 220°
2026-05-07 11:30 41.65031 1.61727 19789 ft 307 kts 220°
2026-05-07 11:31 41.63393 1.59897 19464 ft 306 kts 220°
2026-05-07 11:31 41.61764 1.58077 19155 ft 305 kts 220°
2026-05-07 11:31 41.60142 1.56266 18840 ft 304 kts 219°
2026-05-07 11:31 41.58522 1.54460 18531 ft 303 kts 219°
2026-05-07 11:32 41.55323 1.50806 17840 ft 302 kts 228°
2026-05-07 11:32 41.54251 1.48414 17512 ft 302 kts 248°
2026-05-07 11:32 41.53596 1.45760 17207 ft 300 kts 251°
2026-05-07 11:33 41.53009 1.43098 16897 ft 298 kts 252°
2026-05-07 11:33 41.52436 1.40447 16590 ft 297 kts 252°
2026-05-07 11:33 41.51862 1.37808 16280 ft 295 kts 252°
2026-05-07 11:33 41.51285 1.35185 15985 ft 294 kts 252°
2026-05-07 11:34 41.50708 1.32580 15696 ft 292 kts 252°
2026-05-07 11:34 41.50129 1.29992 15399 ft 291 kts 252°
2026-05-07 11:34 41.49547 1.27404 15110 ft 290 kts 252°
2026-05-07 11:34 41.48968 1.24829 14807 ft 290 kts 252°
2026-05-07 11:35 41.48388 1.22265 14523 ft 289 kts 252°
2026-05-07 11:35 41.47807 1.19704 14225 ft 288 kts 252°
2026-05-07 11:35 41.47229 1.17158 13939 ft 287 kts 252°
2026-05-07 11:35 41.46651 1.14613 13624 ft 286 kts 252°
2026-05-07 11:36 41.46073 1.12074 13309 ft 285 kts 252°
2026-05-07 11:36 41.45497 1.09548 13005 ft 284 kts 252°
2026-05-07 11:36 41.44932 1.07070 12715 ft 283 kts 252°
2026-05-07 11:36 41.44360 1.04568 12411 ft 281 kts 252°
2026-05-07 11:37 41.43791 1.02079 12119 ft 280 kts 252°
2026-05-07 11:37 41.43224 0.99603 11837 ft 279 kts 252°
2026-05-07 11:37 41.42659 0.97138 11559 ft 278 kts 252°
2026-05-07 11:37 41.42096 0.94685 11271 ft 276 kts 253°
2026-05-07 11:38 41.41537 0.92244 10983 ft 275 kts 252°
2026-05-07 11:38 41.40977 0.89812 10701 ft 274 kts 252°
2026-05-07 11:38 41.40416 0.87377 10433 ft 275 kts 252°
2026-05-07 11:38 41.39851 0.84939 10169 ft 276 kts 251°
2026-05-07 11:39 41.38910 0.82771 9999 ft 270 kts 223°
2026-05-07 11:39 41.37351 0.81425 9746 ft 269 kts 201°
2026-05-07 11:39 41.35571 0.80681 9470 ft 268 kts 197°
2026-05-07 11:39 41.33778 0.80004 9176 ft 267 kts 195°
2026-05-07 11:40 41.31994 0.79332 8900 ft 266 kts 195°
2026-05-07 11:40 41.30217 0.78653 8628 ft 265 kts 196°
2026-05-07 11:40 41.28462 0.77974 8486 ft 258 kts 196°
2026-05-07 11:40 41.26764 0.77312 8373 ft 251 kts 196°
2026-05-07 11:41 41.25111 0.76667 8268 ft 244 kts 196°
2026-05-07 11:41 41.23506 0.76040 8167 ft 237 kts 195°
2026-05-07 11:41 41.21912 0.75554 7979 ft 233 kts 189°
2026-05-07 11:41 41.20318 0.75193 7750 ft 232 kts 188°
2026-05-07 11:42 41.18728 0.74836 7513 ft 232 kts 188°